| time (UTC) | temp F | wind direction | speed knots | gust knots | rain 1hr in | rain 24hr in | rain mn in | humidity % | barometer mb |
| 20260902235228 | 59 | 82 | 1.7 | 2.6 | 0.05 | 0.24 | 0.24 | 92 | 1005.5 |
| 20260902234733 | 59 | 69 | 0.9 | 2.6 | 0.05 | 0.24 | 0.24 | 92 | 1005.5 |
| 20260902234220 | 59 | 79 | 0.9 | 3.5 | 0.06 | 0.24 | 0.24 | 92 | 1005.5 |
| 20260902233807 | 59 | 86 | 0.0 | 2.6 | 0.07 | 0.24 | 0.24 | 92 | 1005.6 |
| 20260902233735 | 59 | 86 | 0.0 | 2.6 | 0.07 | 0.24 | 0.24 | 92 | 1005.6 |
| 20260902233222 | 59 | 71 | 0.9 | 3.5 | 0.08 | 0.24 | 0.24 | 92 | 1005.6 |
| 20260902232729 | 59 | 57 | 0.9 | 3.5 | 0.08 | 0.24 | 0.24 | 92 | 1005.5 |
| 20260902232237 | 59 | 69 | 0.9 | 3.5 | 0.09 | 0.24 | 0.24 | 92 | 1005.6 |
| 20260902231723 | 59 | 84 | 1.7 | 3.5 | 0.09 | 0.23 | 0.23 | 92 | 1005.7 |
| 20260902231231 | 59 | 64 | 1.7 | 4.3 | 0.09 | 0.23 | 0.23 | 91 | 1005.8 |
| 20260902230738 | 59 | 73 | 0.0 | 4.3 | 0.09 | 0.22 | 0.22 | 91 | 1005.9 |
| 20260902230305 | 59 | 69 | 0.9 | 2.6 | 0.09 | 0.21 | 0.21 | 91 | 1006.1 |
| 20260902230233 | 59 | 69 | 0.9 | 2.6 | 0.09 | 0.21 | 0.21 | 91 | 1006.1 |
| 20260902225735 | 59 | 87 | 0.9 | 1.7 | 0.09 | 0.20 | 0.20 | 92 | 1006.1 |
| 20260902225306 | 59 | 78 | 0.9 | 1.7 | 0.08 | 0.19 | 0.19 | 91 | 1006.1 |
| 20260902224721 | 60 | 236 | 0.0 | 1.7 | 0.09 | 0.19 | 0.19 | 91 | 1006.2 |
| 20260902224305 | 60 | 103 | 0.0 | 1.7 | 0.09 | 0.18 | 0.18 | 90 | 1006.1 |
| 20260902223723 | 60 | 66 | 0.0 | 2.6 | 0.08 | 0.17 | 0.17 | 90 | 1005.9 |
| 20260902223307 | 60 | 68 | 0.9 | 2.6 | 0.07 | 0.16 | 0.16 | 90 | 1005.7 |
| 20260902222741 | 60 | 101 | 0.0 | 1.7 | 0.08 | 0.16 | 0.16 | 90 | 1005.7 |
| 20260902222306 | 60 | 84 | 0.0 | 1.7 | 0.07 | 0.15 | 0.15 | 90 | 1005.8 |
| 20260902221739 | 60 | 87 | 0.0 | 1.7 | 0.07 | 0.14 | 0.14 | 89 | 1005.8 |
| 20260902221223 | 60 | 62 | 0.9 | 1.7 | 0.07 | 0.14 | 0.14 | 89 | 1005.9 |
| 20260902220808 | 61 | 327 | 0.0 | 0.0 | 0.07 | 0.13 | 0.13 | 89 | 1006.0 |
| 20260902220736 | 61 | 327 | 0.0 | 0.0 | 0.07 | 0.13 | 0.13 | 89 | 1006.0 |
| 20260902220300 | 61 | 327 | 0.0 | 0.0 | 0.06 | 0.12 | 0.12 | 87 | 1006.1 |
| 20260902220228 | 61 | 327 | 0.0 | 0.0 | 0.06 | 0.12 | 0.12 | 87 | 1006.1 |
| 20260902215732 | 61 | 327 | 0.0 | 0.0 | 0.05 | 0.11 | 0.11 | 87 | 1006.0 |
| 20260902215257 | 61 | 331 | 0.0 | 0.0 | 0.05 | 0.10 | 0.10 | 87 | 1006.0 |
| 20260902215225 | 61 | 331 | 0.0 | 0.0 | 0.05 | 0.10 | 0.10 | 87 | 1006.0 |
| 20260902214729 | 61 | 331 | 0.0 | 0.0 | 0.05 | 0.10 | 0.10 | 88 | 1006.0 |
| 20260902214222 | 62 | 314 | 0.0 | 0.0 | 0.04 | 0.09 | 0.09 | 85 | 1006.1 |
| 20260902213729 | 62 | 9 | 0.0 | 1.7 | 0.04 | 0.09 | 0.09 | 86 | 1006.2 |
| 20260902213256 | 62 | 18 | 0.0 | 1.7 | 0.03 | 0.08 | 0.08 | 84 | 1006.1 |
| 20260902213224 | 62 | 18 | 0.0 | 1.7 | 0.03 | 0.08 | 0.08 | 84 | 1006.1 |
| 20260902212751 | 62 | 18 | 0.0 | 1.7 | 0.03 | 0.08 | 0.08 | 84 | 1006.1 |
| 20260902212228 | 62 | 355 | 0.0 | 1.7 | 0.03 | 0.08 | 0.08 | 84 | 1006.2 |
| 20260902211754 | 62 | 355 | 0.9 | 2.6 | 0.02 | 0.07 | 0.07 | 82 | 1006.0 |
| 20260902211230 | 62 | 236 | 0.9 | 1.7 | 0.02 | 0.07 | 0.07 | 82 | 1006.1 |
| 20260902210753 | 63 | 298 | 0.0 | 1.7 | 0.01 | 0.06 | 0.06 | 82 | 1006.1 |
| 20260902210228 | 63 | 142 | 0.0 | 1.7 | 0.01 | 0.06 | 0.06 | 82 | 1006.0 |
| 20260902205735 | 63 | 339 | 0.0 | 1.7 | 0.01 | 0.06 | 0.06 | 81 | 1006.1 |
| 20260902205227 | 64 | 309 | 0.9 | 3.5 | 0.00 | 0.05 | 0.05 | 79 | 1006.1 |
| 20260902204728 | 64 | 338 | 0.9 | 3.5 | 0.00 | 0.05 | 0.05 | 78 | 1006.2 |
| 20260902204235 | 65 | 144 | 0.9 | 2.6 | 0.01 | 0.05 | 0.05 | 83 | 1006.2 |
| 20260902203722 | 64 | 19 | 0.0 | 2.6 | 0.03 | 0.05 | 0.05 | 82 | 1006.2 |
| 20260902203309 | 64 | 9 | 0.0 | 2.6 | 0.04 | 0.05 | 0.05 | 79 | 1006.1 |
| 20260902202724 | 64 | 212 | 0.0 | 1.7 | 0.04 | 0.05 | 0.05 | 80 | 1006.0 |
| 20260902202232 | 64 | 116 | 0.0 | 1.7 | 0.04 | 0.05 | 0.05 | 79 | 1006.1 |
| 20260902201305 | 64 | 84 | 0.0 | 1.7 | 0.04 | 0.05 | 0.05 | 82 | 1006.0 |
| 20260902200720 | 64 | 84 | 0.9 | 1.7 | 0.04 | 0.05 | 0.05 | 81 | 1006.2 |
| 20260902200227 | 64 | 73 | 0.9 | 1.7 | 0.04 | 0.05 | 0.05 | 84 | 1006.2 |
| 20260902195734 | 63 | 68 | 0.0 | 1.7 | 0.04 | 0.05 | 0.05 | 84 | 1006.3 |
| 20260902195226 | 63 | 62 | 0.9 | 1.7 | 0.04 | 0.05 | 0.05 | 84 | 1006.3 |
| 20260902194732 | 63 | 355 | 0.9 | 2.6 | 0.04 | 0.05 | 0.05 | 84 | 1006.3 |
| 20260902194239 | 63 | 292 | 0.9 | 5.2 | 0.03 | 0.04 | 0.04 | 79 | 1006.4 |
| 20260902193806 | 64 | 339 | 0.9 | 12.2 | 0.01 | 0.02 | 0.02 | 73 | 1006.6 |
| 20260902193220 | 67 | 229 | 4.3 | 12.2 | 0.00 | 0.01 | 0.01 | 63 | 1006.4 |
| 20260902192727 | 69 | 241 | 0.9 | 2.6 | 0.00 | 0.01 | 0.01 | 57 | 1006.5 |
| 20260902192255 | 69 | 165 | 0.0 | 3.5 | 0.00 | 0.01 | 0.01 | 56 | 1006.3 |
| 20260902191729 | 69 | 161 | 1.7 | 4.3 | 0.00 | 0.01 | 0.01 | 57 | 1006.1 |
| 20260902191236 | 69 | 284 | 0.9 | 4.3 | 0.00 | 0.01 | 0.01 | 59 | 1006.3 |
| 20260902190804 | 69 | 323 | 0.9 | 5.2 | 0.00 | 0.01 | 0.01 | 58 | 1006.2 |
| 20260902190732 | 69 | 323 | 0.9 | 5.2 | 0.00 | 0.01 | 0.01 | 58 | 1006.2 |
| 20260902190259 | 68 | 284 | 1.7 | 5.2 | 0.00 | 0.01 | 0.01 | 59 | 1006.3 |
| 20260902190227 | 68 | 284 | 1.7 | 5.2 | 0.00 | 0.01 | 0.01 | 59 | 1006.3 |
| 20260902185734 | 68 | 107 | 1.7 | 2.6 | 0.00 | 0.01 | 0.01 | 61 | 1006.3 |
| 20260902185222 | 67 | 128 | 0.9 | 6.1 | 0.00 | 0.01 | 0.01 | 64 | 1006.3 |
| 20260902184728 | 67 | 74 | 1.7 | 6.1 | 0.00 | 0.01 | 0.01 | 61 | 1006.3 |
| 20260902184235 | 67 | 103 | 1.7 | 5.2 | 0.00 | 0.01 | 0.01 | 61 | 1006.3 |
| 20260902183726 | 66 | 26 | 1.7 | 5.2 | 0.00 | 0.01 | 0.01 | 65 | 1006.3 |
| 20260902183233 | 66 | 134 | 2.6 | 5.2 | 0.00 | 0.01 | 0.01 | 66 | 1006.5 |
| 20260902182720 | 66 | 121 | 1.7 | 3.5 | 0.00 | 0.01 | 0.01 | 69 | 1006.5 |
| 20260902182309 | 65 | 84 | 0.9 | 1.7 | 0.00 | 0.01 | 0.01 | 69 | 1006.6 |
| 20260902181723 | 65 | 81 | 0.9 | 1.7 | 0.00 | 0.01 | 0.01 | 70 | 1006.7 |
| 20260902181229 | 64 | 78 | 0.9 | 2.6 | 0.00 | 0.01 | 0.01 | 74 | 1006.7 |
| 20260902180736 | 64 | 67 | 0.9 | 2.6 | 0.00 | 0.01 | 0.01 | 76 | 1006.8 |
| 20260902180303 | 64 | 90 | 0.9 | 1.7 | 0.00 | 0.01 | 0.01 | 75 | 1006.8 |
| 20260902175759 | 64 | 90 | 0.0 | 1.7 | 0.00 | 0.01 | 0.01 | 73 | 1006.8 |
| 20260902175727 | 64 | 90 | 0.0 | 1.7 | 0.00 | 0.01 | 0.01 | 73 | 1006.8 |
| 20260902175256 | 64 | 90 | 0.0 | 2.6 | 0.00 | 0.01 | 0.01 | 73 | 1006.8 |
| 20260902174730 | 64 | 48 | 0.9 | 1.7 | 0.00 | 0.01 | 0.01 | 70 | 1006.9 |
| 20260902174237 | 64 | 37 | 0.0 | 1.7 | 0.00 | 0.01 | 0.01 | 74 | 1006.9 |
| 20260902173723 | 64 | 17 | 0.0 | 2.6 | 0.00 | 0.01 | 0.01 | 70 | 1007.0 |
| 20260902173230 | 64 | 101 | 0.9 | 2.6 | 0.00 | 0.01 | 0.01 | 70 | 1007.0 |
| 20260902172721 | 64 | 53 | 0.0 | 1.7 | 0.00 | 0.01 | 0.01 | 75 | 1007.1 |
| 20260902172230 | 64 | 52 | 0.0 | 3.5 | 0.00 | 0.01 | 0.01 | 75 | 1007.2 |
| 20260902171735 | 64 | 83 | 1.7 | 3.5 | 0.00 | 0.01 | 0.01 | 73 | 1007.1 |
| 20260902171222 | 63 | 104 | 0.0 | 1.7 | 0.00 | 0.01 | 0.01 | 75 | 1007.3 |
| 20260902170730 | 63 | 82 | 0.9 | 2.6 | 0.00 | 0.01 | 0.01 | 75 | 1007.3 |
| 20260902170236 | 63 | 100 | 0.0 | 2.6 | 0.00 | 0.01 | 0.01 | 75 | 1007.4 |
| 20260902165804 | 63 | 115 | 0.9 | 2.6 | 0.00 | 0.01 | 0.01 | 73 | 1007.5 |
| 20260902165732 | 63 | 115 | 0.9 | 2.6 | 0.00 | 0.01 | 0.01 | 73 | 1007.5 |
| 20260902165300 | 64 | 77 | 0.0 | 1.7 | 0.00 | 0.01 | 0.01 | 74 | 1007.5 |
| 20260902164733 | 64 | 148 | 0.0 | 1.7 | 0.00 | 0.01 | 0.01 | 72 | 1007.7 |
| 20260902164301 | 64 | 175 | 0.0 | 3.5 | 0.00 | 0.01 | 0.01 | 73 | 1007.7 |
| 20260902163756 | 64 | 223 | 0.0 | 3.5 | 0.00 | 0.01 | 0.01 | 74 | 1007.7 |
| 20260902163724 | 64 | 223 | 0.0 | 3.5 | 0.00 | 0.01 | 0.01 | 74 | 1007.7 |
| 20260902162738 | 64 | 156 | 0.0 | 1.7 | 0.00 | 0.01 | 0.01 | 73 | 1007.7 |
| 20260902162307 | 64 | 271 | 0.0 | 1.7 | 0.00 | 0.01 | 0.01 | 73 | 1007.7 |
| 20260902162235 | 64 | 271 | 0.0 | 1.7 | 0.00 | 0.01 | 0.01 | 73 | 1007.7 |
| 20260902161733 | 64 | 329 | 0.0 | 2.6 | 0.00 | 0.01 | 0.01 | 74 | 1007.7 |
| 20260902161225 | 64 | 253 | 0.0 | 2.6 | 0.00 | 0.01 | 0.01 | 71 | 1007.7 |
| 20260902160731 | 64 | 118 | 0.9 | 2.6 | 0.00 | 0.01 | 0.01 | 73 | 1007.6 |
| 20260902160238 | 64 | 115 | 0.9 | 1.7 | 0.00 | 0.01 | 0.01 | 78 | 1007.7 |
| 20260902155805 | 64 | 82 | 0.0 | 1.7 | 0.00 | 0.01 | 0.01 | 79 | 1007.7 |
| 20260902155222 | 64 | 82 | 0.0 | 3.5 | 0.00 | 0.01 | 0.01 | 76 | 1007.6 |
| 20260902154727 | 64 | 90 | 0.9 | 3.5 | 0.00 | 0.01 | 0.01 | 79 | 1007.8 |
| 20260902154255 | 63 | 87 | 0.9 | 2.6 | 0.00 | 0.01 | 0.01 | 81 | 1007.8 |
| 20260902153730 | 62 | 53 | 0.0 | 1.7 | 0.00 | 0.01 | 0.01 | 83 | 1008.1 |
| 20260902153238 | 62 | 53 | 0.9 | 1.7 | 0.00 | 0.01 | 0.01 | 85 | 1008.0 |
| 20260902152805 | 61 | 53 | 0.0 | 0.9 | 0.00 | 0.01 | 0.01 | 87 | 1008.1 |
| 20260902152302 | 59 | 53 | 0.0 | 0.0 | 0.00 | 0.01 | 0.01 | 90 | 1008.0 |
| 20260902151737 | 59 | 53 | 0.0 | 0.0 | 0.00 | 0.01 | 0.01 | 92 | 1008.2 |
| 20260902151223 | 58 | 53 | 0.0 | 0.0 | 0.00 | 0.01 | 0.01 | 92 | 1008.1 |
| 20260902150730 | 58 | 53 | 0.0 | 0.0 | 0.00 | 0.01 | 0.01 | 92 | 1008.2 |
| 20260902150221 | 58 | 53 | 0.0 | 0.0 | 0.00 | 0.01 | 0.01 | 92 | 1008.2 |
| 20260902145728 | 58 | 53 | 0.0 | 0.0 | 0.00 | 0.01 | 0.01 | 93 | 1008.2 |
| 20260902145236 | 58 | 53 | 0.0 | 0.0 | 0.00 | 0.01 | 0.01 | 93 | 1008.3 |
| 20260902144722 | 58 | 53 | 0.0 | 0.0 | 0.00 | 0.01 | 0.01 | 94 | 1008.4 |
| 20260902144229 | 57 | 53 | 0.0 | 0.0 | 0.00 | 0.01 | 0.01 | 94 | 1008.5 |
| 20260902143736 | 57 | 53 | 0.0 | 0.0 | 0.00 | 0.01 | 0.01 | 95 | 1008.6 |
| 20260902143303 | 56 | 53 | 0.0 | 0.0 | 0.00 | 0.01 | 0.01 | 95 | 1008.7 |
| 20260902143231 | 56 | 53 | 0.0 | 0.0 | 0.00 | 0.01 | 0.01 | 95 | 1008.7 |
| 20260902142738 | 56 | 53 | 0.0 | 0.0 | 0.00 | 0.01 | 0.01 | 95 | 1008.7 |
| 20260902142227 | 55 | 53 | 0.0 | 0.0 | 0.00 | 0.01 | 0.01 | 94 | 1008.9 |
| 20260902141732 | 55 | 53 | 0.0 | 0.0 | 0.00 | 0.01 | 0.01 | 94 | 1008.9 |
| 20260902141239 | 55 | 53 | 0.0 | 0.0 | 0.00 | 0.01 | 0.01 | 94 | 1008.8 |
| 20260902140730 | 55 | 53 | 0.0 | 0.0 | 0.00 | 0.01 | 0.01 | 94 | 1008.7 |
| 20260902140257 | 55 | 53 | 0.0 | 0.0 | 0.00 | 0.01 | 0.01 | 94 | 1008.8 |
| 20260902135732 | 55 | 53 | 0.0 | 0.0 | 0.00 | 0.01 | 0.01 | 94 | 1008.7 |
| 20260902135300 | 55 | 53 | 0.0 | 0.0 | 0.00 | 0.01 | 0.01 | 94 | 1008.7 |
| 20260902134734 | 55 | 53 | 0.0 | 0.0 | 0.00 | 0.01 | 0.01 | 94 | 1008.6 |
| 20260902134221 | 55 | 53 | 0.0 | 0.0 | 0.00 | 0.01 | 0.01 | 93 | 1008.6 |
| 20260902133728 | 55 | 53 | 0.0 | 0.0 | 0.00 | 0.01 | 0.01 | 93 | 1008.7 |
| 20260902133235 | 55 | 53 | 0.0 | 0.0 | 0.00 | 0.01 | 0.01 | 93 | 1008.7 |
| 20260902132722 | 55 | 53 | 0.0 | 0.0 | 0.00 | 0.01 | 0.01 | 93 | 1008.7 |
| 20260902132230 | 56 | 53 | 0.0 | 0.0 | 0.00 | 0.01 | 0.01 | 93 | 1008.7 |
| 20260902131756 | 56 | 53 | 0.0 | 0.0 | 0.00 | 0.01 | 0.01 | 93 | 1008.7 |
| 20260902131232 | 56 | 53 | 0.0 | 0.0 | 0.00 | 0.01 | 0.01 | 93 | 1008.7 |
| 20260902130759 | 56 | 53 | 0.0 | 0.0 | 0.00 | 0.01 | 0.01 | 92 | 1008.8 |
| 20260902130234 | 56 | 53 | 0.0 | 0.0 | 0.00 | 0.01 | 0.01 | 93 | 1009.0 |
| 20260902125222 | 57 | 53 | 0.0 | 0.0 | 0.00 | 0.01 | 0.01 | 93 | 1009.0 |
| 20260902124728 | 57 | 53 | 0.0 | 0.0 | 0.00 | 0.01 | 0.01 | 93 | 1009.1 |
| 20260902124235 | 57 | 53 | 0.0 | 0.0 | 0.00 | 0.01 | 0.01 | 93 | 1009.2 |
| 20260902123802 | 57 | 53 | 0.0 | 0.0 | 0.00 | 0.01 | 0.01 | 93 | 1009.2 |
| 20260902123238 | 57 | 53 | 0.0 | 0.0 | 0.00 | 0.01 | 0.01 | 93 | 1009.2 |
| 20260902122725 | 57 | 53 | 0.0 | 0.0 | 0.00 | 0.01 | 0.01 | 93 | 1009.2 |
| 20260902122253 | 57 | 53 | 0.0 | 0.0 | 0.00 | 0.01 | 0.01 | 93 | 1009.2 |
| 20260902122221 | 57 | 53 | 0.0 | 0.0 | 0.00 | 0.01 | 0.01 | 93 | 1009.2 |
| 20260902121727 | 57 | 53 | 0.0 | 0.0 | 0.00 | 0.01 | 0.01 | 93 | 1009.2 |
| 20260902121234 | 57 | 53 | 0.0 | 0.0 | 0.00 | 0.01 | 0.01 | 93 | 1009.3 |
| 20260902120721 | 57 | 53 | 0.0 | 0.0 | 0.00 | 0.01 | 0.01 | 93 | 1009.3 |
| 20260902120228 | 57 | 53 | 0.0 | 1.7 | 0.00 | 0.01 | 0.01 | 93 | 1009.4 |
| 20260902115756 | 57 | 53 | 0.0 | 1.7 | 0.00 | 0.01 | 0.01 | 93 | 1009.4 |
| 20260902115232 | 57 | 53 | 0.0 | 1.7 | 0.00 | 0.01 | 0.01 | 93 | 1009.4 |
| 20260902114258 | 57 | 335 | 0.0 | 0.0 | 0.00 | 0.01 | 0.01 | 93 | 1009.6 |
| 20260902113733 | 57 | 335 | 0.0 | 0.0 | 0.00 | 0.01 | 0.01 | 93 | 1009.6 |
| 20260902113224 | 57 | 335 | 0.0 | 0.0 | 0.00 | 0.01 | 0.01 | 93 | 1009.6 |
| 20260902112731 | 57 | 335 | 0.0 | 0.0 | 0.00 | 0.01 | 0.01 | 93 | 1009.6 |
| 20260902112239 | 58 | 335 | 0.0 | 0.0 | 0.00 | 0.01 | 0.01 | 93 | 1009.7 |
| 20260902111725 | 58 | 335 | 0.0 | 0.0 | 0.00 | 0.01 | 0.01 | 93 | 1009.7 |
| 20260902111232 | 58 | 335 | 0.0 | 0.0 | 0.00 | 0.01 | 0.01 | 93 | 1009.7 |
| 20260902110739 | 58 | 335 | 0.0 | 0.0 | 0.00 | 0.01 | 0.01 | 93 | 1009.8 |
| 20260902110306 | 58 | 335 | 0.0 | 0.0 | 0.00 | 0.01 | 0.01 | 93 | 1009.8 |
| 20260902110234 | 58 | 335 | 0.0 | 0.0 | 0.00 | 0.01 | 0.01 | 93 | 1009.8 |
| 20260902105721 | 58 | 335 | 0.0 | 0.0 | 0.00 | 0.01 | 0.01 | 93 | 1009.8 |
| 20260902105309 | 58 | 335 | 0.0 | 0.0 | 0.00 | 0.01 | 0.01 | 93 | 1009.9 |
| 20260902105238 | 58 | 335 | 0.0 | 0.0 | 0.00 | 0.01 | 0.01 | 93 | 1009.9 |
| 20260902104310 | 58 | 277 | 0.0 | 0.0 | 0.00 | 0.01 | 0.01 | 94 | 1009.9 |
| 20260902103725 | 58 | 277 | 0.0 | 0.0 | 0.00 | 0.01 | 0.01 | 93 | 1009.9 |
| 20260902103232 | 58 | 277 | 0.0 | 0.0 | 0.00 | 0.01 | 0.01 | 93 | 1010.0 |
| 20260902102723 | 58 | 277 | 0.0 | 1.7 | 0.00 | 0.01 | 0.01 | 93 | 1010.0 |
| 20260902102231 | 58 | 277 | 0.0 | 1.7 | 0.00 | 0.01 | 0.01 | 93 | 1010.1 |
| 20260902101757 | 58 | 70 | 0.0 | 0.0 | 0.00 | 0.01 | 0.01 | 93 | 1010.2 |
| 20260902101252 | 58 | 70 | 0.0 | 0.0 | 0.00 | 0.01 | 0.01 | 93 | 1010.1 |
| 20260902101221 | 58 | 70 | 0.0 | 0.0 | 0.00 | 0.01 | 0.01 | 93 | 1010.1 |
| 20260902100727 | 58 | 70 | 0.0 | 0.0 | 0.00 | 0.01 | 0.01 | 93 | 1010.2 |
| 20260902100234 | 58 | 70 | 0.0 | 0.0 | 0.00 | 0.01 | 0.01 | 92 | 1010.2 |
| 20260902095721 | 58 | 70 | 0.0 | 0.0 | 0.01 | 0.01 | 0.01 | 92 | 1010.2 |
| 20260902095228 | 58 | 70 | 0.0 | 0.0 | 0.01 | 0.01 | 0.01 | 92 | 1010.2 |
| 20260902094734 | 58 | 70 | 0.0 | 0.0 | 0.01 | 0.01 | 0.01 | 92 | 1010.2 |
| 20260902094221 | 58 | 70 | 0.0 | 0.0 | 0.01 | 0.01 | 0.01 | 92 | 1010.3 |
| 20260902093728 | 58 | 70 | 0.0 | 0.0 | 0.01 | 0.01 | 0.01 | 92 | 1010.2 |
| 20260902093234 | 58 | 70 | 0.0 | 0.0 | 0.01 | 0.01 | 0.01 | 92 | 1010.3 |
| 20260902092725 | 58 | 70 | 0.0 | 0.0 | 0.01 | 0.01 | 0.01 | 92 | 1010.2 |
| 20260902092233 | 58 | 70 | 0.0 | 0.0 | 0.01 | 0.01 | 0.01 | 92 | 1010.4 |
| 20260902091739 | 59 | 70 | 0.0 | 0.0 | 0.01 | 0.01 | 0.01 | 92 | 1010.3 |
| 20260902091226 | 59 | 70 | 0.0 | 0.0 | 0.01 | 0.01 | 0.01 | 92 | 1010.4 |
| 20260902090753 | 59 | 70 | 0.0 | 0.0 | 0.01 | 0.01 | 0.01 | 92 | 1010.4 |
| 20260902090228 | 59 | 70 | 0.0 | 0.0 | 0.01 | 0.01 | 0.01 | 92 | 1010.5 |
| 20260902085735 | 59 | 70 | 0.0 | 0.0 | 0.00 | 0.00 | 0.00 | 92 | 1010.5 |
| 20260902085223 | 59 | 70 | 0.0 | 0.0 | 0.00 | 0.00 | 0.00 | 92 | 1010.6 |
| 20260902084729 | 59 | 70 | 0.0 | 0.0 | 0.00 | 0.00 | 0.00 | 92 | 1010.7 |
| 20260902084237 | 59 | 70 | 0.0 | 0.0 | 0.00 | 0.00 | 0.00 | 92 | 1010.7 |
| 20260902083804 | 59 | 70 | 0.0 | 0.0 | 0.00 | 0.00 | 0.00 | 91 | 1010.7 |
| 20260902083259 | 59 | 70 | 0.0 | 0.0 | 0.00 | 0.00 | 0.00 | 91 | 1010.8 |
| 20260902082734 | 59 | 70 | 0.0 | 0.0 | 0.00 | 0.00 | 0.00 | 91 | 1010.8 |
| 20260902082308 | 59 | 70 | 0.0 | 0.0 | 0.00 | 0.00 | 0.00 | 91 | 1010.8 |
| 20260902082231 | 59 | 70 | 0.0 | 0.0 | 0.00 | 0.00 | 0.00 | 91 | 1010.8 |
| 20260902081720 | 59 | 70 | 0.0 | 0.0 | 0.00 | 0.00 | 0.00 | 91 | 1010.8 |
| 20260902081227 | 59 | 70 | 0.0 | 0.0 | 0.00 | 0.00 | 0.00 | 91 | 1010.8 |
| 20260902080734 | 59 | 70 | 0.0 | 0.0 | 0.00 | 0.00 | 0.00 | 91 | 1010.8 |
| 20260902080302 | 59 | 70 | 0.0 | 0.0 | 0.00 | 0.00 | 0.00 | 91 | 1010.8 |
| 20260902075736 | 59 | 70 | 0.0 | 0.0 | 0.00 | 0.00 | 0.00 | 91 | 1010.8 |
| 20260902075224 | 59 | 70 | 0.0 | 0.0 | 0.00 | 0.00 | 0.00 | 91 | 1010.9 |
| 20260902074810 | 59 | 70 | 0.0 | 0.0 | 0.00 | 0.00 | 0.00 | 91 | 1010.8 |
| 20260902074225 | 59 | 70 | 0.0 | 0.0 | 0.00 | 0.00 | 0.00 | 91 | 1011.0 |
| 20260902073732 | 59 | 70 | 0.0 | 0.0 | 0.00 | 0.00 | 0.00 | 91 | 1011.0 |
| 20260902073239 | 59 | 70 | 0.0 | 0.9 | 0.00 | 0.00 | 0.00 | 90 | 1011.0 |
| 20260902072806 | 59 | 70 | 0.0 | 1.7 | 0.00 | 0.00 | 0.00 | 90 | 1011.1 |
| 20260902072223 | 59 | 127 | 0.0 | 0.0 | 0.00 | 0.00 | 0.00 | 91 | 1011.0 |
| 20260902071809 | 59 | 135 | 0.0 | 1.7 | 0.00 | 0.00 | 0.00 | 91 | 1011.1 |
| 20260902071306 | 59 | 135 | 0.0 | 1.7 | 0.00 | 0.00 | 0.00 | 91 | 1011.1 |
| 20260902070721 | 59 | 168 | 0.0 | 1.7 | 0.00 | 0.00 | 0.00 | 91 | 1011.2 |
| 20260902070232 | 59 | 113 | 0.0 | 1.7 | 0.00 | 0.00 | 0.00 | 91 | 1011.2 |
| 20260902065739 | 59 | 126 | 0.0 | 1.7 | 0.00 | 0.00 | 0.00 | 91 | 1011.2 |
| 20260902065227 | 59 | 126 | 0.9 | 1.7 | 0.00 | 0.00 | 0.00 | 91 | 1011.2 |
| 20260902064752 | 59 | 102 | 0.0 | 0.0 | 0.00 | 0.00 | 0.00 | 91 | 1011.2 |
| 20260902064227 | 59 | 102 | 0.0 | 0.0 | 0.00 | 0.00 | 0.00 | 91 | 1011.3 |
| 20260902063734 | 59 | 102 | 0.0 | 1.7 | 0.00 | 0.00 | 0.00 | 91 | 1011.4 |
| 20260902063221 | 59 | 102 | 0.0 | 1.7 | 0.00 | 0.00 | 0.00 | 91 | 1011.3 |
| 20260902062728 | 59 | 102 | 0.0 | 1.7 | 0.00 | 0.00 | 0.00 | 91 | 1011.4 |
| 20260902062237 | 59 | 102 | 0.9 | 1.7 | 0.00 | 0.00 | 0.00 | 91 | 1011.4 |
| 20260902061721 | 59 | 115 | 0.0 | 1.7 | 0.00 | 0.00 | 0.00 | 91 | 1011.5 |
| 20260902061228 | 59 | 119 | 0.0 | 1.7 | 0.00 | 0.00 | 0.00 | 91 | 1011.4 |
| 20260902060739 | 59 | 119 | 0.9 | 1.7 | 0.00 | 0.00 | 0.00 | 91 | 1011.4 |
| 20260902060306 | 59 | 55 | 0.0 | 1.7 | 0.00 | 0.00 | 0.00 | 92 | 1011.5 |
| 20260902055721 | 59 | 55 | 0.0 | 1.7 | 0.00 | 0.00 | 0.00 | 91 | 1011.5 |
| 20260902055309 | 59 | 141 | 0.0 | 0.0 | 0.00 | 0.00 | 0.00 | 92 | 1011.4 |
| 20260902055237 | 59 | 141 | 0.0 | 0.0 | 0.00 | 0.00 | 0.00 | 92 | 1011.4 |
| 20260902054723 | 59 | 141 | 0.0 | 0.0 | 0.00 | 0.00 | 0.00 | 92 | 1011.4 |
| 20260902054230 | 59 | 141 | 0.0 | 0.0 | 0.00 | 0.00 | 0.00 | 92 | 1011.4 |
| 20260902053737 | 59 | 141 | 0.0 | 1.7 | 0.00 | 0.00 | 0.00 | 92 | 1011.5 |
| 20260902053224 | 59 | 141 | 0.0 | 1.7 | 0.00 | 0.00 | 0.00 | 92 | 1011.5 |
| 20260902052731 | 59 | 117 | 0.0 | 1.7 | 0.00 | 0.00 | 0.00 | 92 | 1011.7 |
| 20260902052240 | 59 | 117 | 0.9 | 1.7 | 0.00 | 0.00 | 0.00 | 92 | 1011.7 |
| 20260902051725 | 59 | 70 | 0.0 | 1.7 | 0.00 | 0.00 | 0.00 | 92 | 1011.7 |
| 20260902051232 | 59 | 70 | 0.0 | 1.7 | 0.00 | 0.00 | 0.00 | 92 | 1011.7 |
| 20260902050800 | 59 | 70 | 0.0 | 1.7 | 0.00 | 0.00 | 0.00 | 92 | 1011.8 |
| 20260902050239 | 59 | 70 | 0.0 | 1.7 | 0.00 | 0.00 | 0.00 | 92 | 1011.8 |
| 20260902045726 | 59 | 64 | 0.0 | 1.7 | 0.00 | 0.00 | 0.00 | 92 | 1011.7 |
| 20260902045234 | 59 | 65 | 0.0 | 1.7 | 0.00 | 0.00 | 0.00 | 92 | 1011.8 |
| 20260902044720 | 59 | 47 | 0.0 | 0.0 | 0.00 | 0.00 | 0.00 | 92 | 1011.6 |
| 20260902044227 | 59 | 47 | 0.0 | 0.0 | 0.00 | 0.00 | 0.00 | 92 | 1011.7 |
| 20260902043734 | 59 | 47 | 0.0 | 0.0 | 0.00 | 0.00 | 0.00 | 92 | 1011.6 |
| 20260902043302 | 59 | 47 | 0.0 | 0.0 | 0.00 | 0.00 | 0.00 | 91 | 1011.7 |
| 20260902042737 | 59 | 47 | 0.0 | 0.0 | 0.00 | 0.00 | 0.00 | 91 | 1011.8 |
| 20260902042225 | 59 | 47 | 0.0 | 0.0 | 0.00 | 0.00 | 0.00 | 91 | 1011.8 |
| 20260902041811 | 59 | 46 | 0.0 | 0.0 | 0.00 | 0.00 | 0.00 | 91 | 1011.8 |
| 20260902041740 | 59 | 46 | 0.0 | 0.0 | 0.00 | 0.00 | 0.00 | 91 | 1011.8 |
| 20260902041226 | 59 | 47 | 0.0 | 0.0 | 0.00 | 0.00 | 0.00 | 91 | 1011.7 |
| 20260902040733 | 59 | 47 | 0.0 | 0.0 | 0.00 | 0.00 | 0.00 | 91 | 1011.7 |
| 20260902040224 | 59 | 47 | 0.0 | 0.0 | 0.00 | 0.00 | 0.00 | 91 | 1011.7 |
| 20260902035731 | 59 | 47 | 0.0 | 0.0 | 0.00 | 0.00 | 0.00 | 91 | 1011.7 |
| 20260902035239 | 60 | 46 | 0.0 | 0.0 | 0.00 | 0.00 | 0.00 | 91 | 1011.7 |
| 20260902034725 | 60 | 44 | 0.0 | 0.0 | 0.00 | 0.00 | 0.00 | 91 | 1011.7 |
| 20260902034232 | 60 | 44 | 0.0 | 0.0 | 0.00 | 0.00 | 0.00 | 90 | 1011.7 |
| 20260902033734 | 60 | 44 | 0.0 | 0.0 | 0.00 | 0.00 | 0.00 | 89 | 1011.8 |
| 20260902033257 | 60 | 44 | 0.0 | 0.0 | 0.00 | 0.00 | 0.00 | 89 | 1011.7 |
| 20260902032752 | 60 | 44 | 0.0 | 0.0 | 0.00 | 0.00 | 0.00 | 89 | 1011.7 |
| 20260902032720 | 60 | 44 | 0.0 | 0.0 | 0.00 | 0.00 | 0.00 | 89 | 1011.7 |
| 20260902032228 | 60 | 44 | 0.0 | 0.0 | 0.00 | 0.00 | 0.00 | 88 | 1011.7 |
| 20260902031734 | 60 | 44 | 0.0 | 0.0 | 0.00 | 0.00 | 0.00 | 87 | 1011.8 |
| 20260902031221 | 61 | 322 | 0.0 | 1.7 | 0.00 | 0.00 | 0.00 | 86 | 1011.7 |
| 20260902030728 | 61 | 281 | 0.0 | 1.7 | 0.00 | 0.00 | 0.00 | 85 | 1011.6 |
| 20260902030239 | 61 | 99 | 0.0 | 1.7 | 0.00 | 0.00 | 0.00 | 84 | 1011.6 |
| 20260902025806 | 61 | 46 | 0.0 | 1.7 | 0.00 | 0.00 | 0.00 | 83 | 1011.6 |
| 20260902025222 | 62 | 348 | 0.0 | 7.0 | 0.00 | 0.00 | 0.00 | 82 | 1011.5 |
| 20260902024727 | 62 | 148 | 0.9 | 7.0 | 0.00 | 0.00 | 0.00 | 80 | 1011.6 |
| 20260902024229 | 63 | 276 | 2.6 | 9.6 | 0.00 | 0.00 | 0.00 | 79 | 1011.5 |
| 20260902023736 | 64 | 327 | 2.6 | 8.7 | 0.00 | 0.00 | 0.00 | 77 | 1011.4 |
| 20260902023303 | 64 | 323 | 0.0 | 2.6 | 0.00 | 0.00 | 0.00 | 76 | 1011.2 |
| 20260902023231 | 64 | 323 | 0.0 | 2.6 | 0.00 | 0.00 | 0.00 | 76 | 1011.2 |
| 20260902022737 | 64 | 45 | 0.9 | 2.6 | 0.00 | 0.00 | 0.00 | 76 | 1011.2 |
| 20260902022225 | 64 | 145 | 0.0 | 1.7 | 0.00 | 0.00 | 0.00 | 77 | 1011.2 |
| 20260902021731 | 64 | 145 | 0.0 | 1.7 | 0.00 | 0.00 | 0.00 | 77 | 1011.2 |
| 20260902021238 | 64 | 70 | 0.0 | 1.7 | 0.00 | 0.00 | 0.00 | 77 | 1011.3 |
| 20260902020725 | 64 | 70 | 0.0 | 1.7 | 0.00 | 0.00 | 0.00 | 77 | 1011.4 |
| 20260902020236 | 64 | 55 | 0.0 | 1.7 | 0.00 | 0.00 | 0.00 | 77 | 1011.4 |
| 20260902015723 | 64 | 55 | 0.0 | 1.7 | 0.00 | 0.00 | 0.00 | 77 | 1011.2 |
| 20260902015311 | 64 | 55 | 0.0 | 1.7 | 0.00 | 0.00 | 0.00 | 77 | 1011.4 |
| 20260902014805 | 64 | 55 | 0.0 | 1.7 | 0.00 | 0.00 | 0.00 | 77 | 1011.4 |
| 20260902014733 | 64 | 55 | 0.0 | 1.7 | 0.00 | 0.00 | 0.00 | 77 | 1011.4 |
| 20260902014220 | 64 | 355 | 0.9 | 1.7 | 0.00 | 0.00 | 0.00 | 76 | 1011.4 |
| 20260902013727 | 64 | 268 | 0.0 | 1.7 | 0.00 | 0.00 | 0.00 | 76 | 1011.4 |
| 20260902013234 | 65 | 311 | 0.9 | 2.6 | 0.00 | 0.00 | 0.00 | 75 | 1011.5 |
| 20260902012721 | 65 | 265 | 0.9 | 2.6 | 0.00 | 0.00 | 0.00 | 74 | 1011.4 |
| 20260902012229 | 65 | 360 | 0.0 | 2.6 | 0.00 | 0.00 | 0.00 | 74 | 1011.4 |
| 20260902011734 | 65 | 167 | 0.0 | 4.3 | 0.00 | 0.00 | 0.00 | 74 | 1011.4 |
| 20260902011221 | 65 | 334 | 0.9 | 4.3 | 0.00 | 0.00 | 0.00 | 73 | 1011.5 |
| 20260902010728 | 65 | 331 | 0.9 | 3.5 | 0.00 | 0.00 | 0.00 | 73 | 1011.4 |
| 20260902010256 | 65 | 29 | 0.9 | 3.5 | 0.00 | 0.00 | 0.00 | 73 | 1011.4 |
| 20260902005735 | 65 | 273 | 0.9 | 3.5 | 0.00 | 0.00 | 0.00 | 73 | 1011.4 |
| 20260902005223 | 65 | 319 | 0.9 | 1.7 | 0.00 | 0.00 | 0.00 | 73 | 1011.4 |
| 20260902004730 | 65 | 124 | 0.0 | 3.5 | 0.00 | 0.00 | 0.00 | 73 | 1011.5 |
| 20260902004253 | 65 | 29 | 1.7 | 3.5 | 0.00 | 0.00 | 0.00 | 73 | 1011.4 |
| 20260902003728 | 65 | 292 | 0.0 | 1.7 | 0.00 | 0.00 | 0.00 | 74 | 1011.4 |
| 20260902003235 | 65 | 321 | 0.0 | 1.7 | 0.00 | 0.00 | 0.00 | 74 | 1011.5 |
| 20260902002722 | 65 | 183 | 0.9 | 1.7 | 0.00 | 0.00 | 0.00 | 74 | 1011.6 |
| 20260902002230 | 65 | 127 | 0.9 | 2.6 | 0.00 | 0.00 | 0.00 | 75 | 1011.6 |
| 20260902001736 | 65 | 351 | 0.9 | 2.6 | 0.00 | 0.00 | 0.00 | 75 | 1011.6 |
| 20260902001223 | 65 | 273 | 0.9 | 1.7 | 0.00 | 0.00 | 0.00 | 74 | 1011.5 |
| 20260902000810 | 65 | 284 | 0.0 | 3.5 | 0.00 | 0.00 | 0.00 | 74 | 1011.5 |
| 20260902000738 | 65 | 284 | 0.0 | 3.5 | 0.00 | 0.00 | 0.00 | 74 | 1011.5 |
| 20260902000226 | 65 | 100 | 0.9 | 3.5 | 0.00 | 0.00 | 0.00 | 74 | 1011.5 |
| 20260901235736 | 65 | 306 | 0.0 | 2.6 | 0.00 | 0.00 | 0.00 | 74 | 1011.5 |